Orbital Elements at Epoch 2459200.5 (2020-Dec-17.0) TDB
Reference: JPL 18 (heliocentric ecliptic J2000)
Element | Value | Uncertainty (1-sigma) | Units |
e | .1772758926379223 | 3.771e-08 | |
a | 2.352502823312391 | 1.2721e-08 | au |
q | 1.935460785376454 | 8.8638e-08 | au |
i | 3.375218897708172 | 5.5613e-06 | deg |
node | 153.5836548825567 | 6.9655e-05 | deg |
peri | 71.59138770835304 | 7.143e-05 | deg |
M | 77.14096764383491 | 1.5908e-05 | deg |
tp | 2458918.092492131623 (2020-Mar-09.59249213) | 5.7489e-05 | TDB |
period | 1317.933984209503 3.61 | 1.069e-05 2.927e-08 | d yr |
n | .2731548046512574 | 2.2156e-09 | deg/d |
Q | 2.769544861248327 | 1.4976e-08 | au |
|
| | Orbit Determination Parameters
Additional Information
|